LAN3201 SBRF-SYCJ

Flight info

Callsign LAN3201
Flight time 4h 48m
Altitude 34000
Route IROSI UZ81 SAVIO/N0462F360 UZ81 BEL UG449 ZY UG443 GEBON
Aircraft A320/M-SDE3FGHIRWY/LB1

Departure

Time 2026-05-06 15:23
Airport Recife/Guararapes - Gilberto Freyre International Airport (SBRF)

Arrival

Time 2026-05-06 20:12
Airport Cheddi Jagan International Airport (SYCJ)
Time Latitude Longitude Altitude Speed Heading
2026-05-06 14:40 -8.13537 -34.91802 46 ft 0 kts 71°
2026-05-06 15:11 -8.13544 -34.91822 46 ft 4 kts 65°
2026-05-06 15:11 -8.13557 -34.91845 41 ft 4 kts 44°
2026-05-06 15:12 -8.13577 -34.91856 43 ft 3 kts 344°
2026-05-06 15:12 -8.13580 -34.91855 40 ft 0 kts 342°
2026-05-06 15:14 -8.13577 -34.91856 43 ft 3 kts 342°
2026-05-06 15:14 -8.13551 -34.91865 43 ft 4 kts 342°
2026-05-06 15:15 -8.13514 -34.91877 44 ft 8 kts 341°
2026-05-06 15:15 -8.13445 -34.91900 44 ft 12 kts 341°
2026-05-06 15:15 -8.13355 -34.91931 44 ft 14 kts 341°
2026-05-06 15:15 -8.13269 -34.91959 44 ft 12 kts 342°
2026-05-06 15:16 -8.13196 -34.91983 42 ft 12 kts 342°
2026-05-06 15:16 -8.13112 -34.92010 46 ft 13 kts 342°
2026-05-06 15:16 -8.13020 -34.92040 48 ft 14 kts 342°
2026-05-06 15:16 -8.12934 -34.92070 48 ft 12 kts 341°
2026-05-06 15:17 -8.12838 -34.92103 48 ft 17 kts 341°
2026-05-06 15:17 -8.12763 -34.92129 47 ft 16 kts 341°
2026-05-06 15:17 -8.12670 -34.92160 47 ft 12 kts 341°
2026-05-06 15:17 -8.12598 -34.92185 49 ft 10 kts 341°
2026-05-06 15:18 -8.12530 -34.92206 48 ft 12 kts 343°
2026-05-06 15:18 -8.12443 -34.92232 46 ft 12 kts 343°
2026-05-06 15:18 -8.12367 -34.92255 47 ft 10 kts 343°
2026-05-06 15:18 -8.12305 -34.92276 46 ft 10 kts 341°
2026-05-06 15:19 -8.12230 -34.92301 46 ft 11 kts 341°
2026-05-06 15:19 -8.12155 -34.92326 44 ft 12 kts 342°
2026-05-06 15:19 -8.12076 -34.92352 42 ft 13 kts 342°
2026-05-06 15:19 -8.11987 -34.92381 41 ft 13 kts 342°
2026-05-06 15:20 -8.11905 -34.92407 38 ft 11 kts 342°
2026-05-06 15:20 -8.11837 -34.92428 41 ft 9 kts 342°
2026-05-06 15:20 -8.11767 -34.92451 40 ft 13 kts 342°
2026-05-06 15:20 -8.11677 -34.92480 41 ft 12 kts 342°
2026-05-06 15:21 -8.11610 -34.92508 42 ft 9 kts 328°
2026-05-06 15:21 -8.11556 -34.92553 45 ft 10 kts 319°
2026-05-06 15:21 -8.11509 -34.92595 45 ft 8 kts 319°
2026-05-06 15:21 -8.11467 -34.92632 45 ft 10 kts 319°
2026-05-06 15:22 -8.11453 -34.92686 44 ft 8 kts 237°
2026-05-06 15:22 -8.11499 -34.92693 44 ft 8 kts 162°
2026-05-06 15:22 -8.11694 -34.92623 43 ft 64 kts 161°
2026-05-06 15:22 -8.12313 -34.92418 46 ft 123 kts 161°
2026-05-06 15:23 -8.13299 -34.92088 47 ft 170 kts 159°
2026-05-06 15:23 -8.14427 -34.91726 622 ft 172 kts 160°
2026-05-06 15:23 -8.15587 -34.91358 1335 ft 177 kts 163°
2026-05-06 15:23 -8.16780 -34.90986 1960 ft 183 kts 161°
2026-05-06 15:24 -8.18055 -34.90571 2207 ft 202 kts 161°
2026-05-06 15:24 -8.19422 -34.90120 2664 ft 210 kts 159°
2026-05-06 15:24 -8.20673 -34.89313 3021 ft 227 kts 126°
2026-05-06 15:24 -8.21180 -34.87746 3330 ft 252 kts 89°
2026-05-06 15:25 -8.20619 -34.86030 3910 ft 266 kts 63°
2026-05-06 15:25 -8.19575 -34.84469 4655 ft 272 kts 55°
2026-05-06 15:25 -8.18385 -34.82965 5168 ft 275 kts 53°
2026-05-06 15:25 -8.17163 -34.81472 5969 ft 276 kts 53°
2026-05-06 15:26 -8.15956 -34.79960 6718 ft 278 kts 54°
2026-05-06 15:26 -8.14763 -34.78414 7448 ft 279 kts 55°
2026-05-06 15:26 -8.13589 -34.76850 8155 ft 281 kts 56°
2026-05-06 15:26 -8.12421 -34.75268 8887 ft 282 kts 57°
2026-05-06 15:27 -8.11255 -34.73674 9606 ft 283 kts 57°
2026-05-06 15:27 -8.09864 -34.72244 10225 ft 292 kts 38°
2026-05-06 15:27 -8.07981 -34.71416 10808 ft 303 kts 14°
2026-05-06 15:27 -8.05852 -34.71423 11380 ft 314 kts 351°
2026-05-06 15:28 -8.03668 -34.72008 11531 ft 336 kts 346°
2026-05-06 15:28 -8.01332 -34.72704 11656 ft 356 kts 345°
2026-05-06 15:28 -7.98933 -34.73446 11778 ft 374 kts 345°
2026-05-06 15:28 -7.96373 -34.74244 12052 ft 385 kts 345°
2026-05-06 15:29 -7.93817 -34.75114 12555 ft 390 kts 342°
2026-05-06 15:29 -7.91263 -34.76063 13125 ft 393 kts 341°
2026-05-06 15:29 -7.88705 -34.77053 13669 ft 395 kts 340°
2026-05-06 15:29 -7.86135 -34.78056 14163 ft 397 kts 340°
2026-05-06 15:30 -7.83544 -34.79058 14632 ft 400 kts 340°
2026-05-06 15:30 -7.80948 -34.80092 15086 ft 403 kts 336°
2026-05-06 15:30 -7.78522 -34.81537 15534 ft 407 kts 324°
2026-05-06 15:30 -7.76407 -34.83449 15969 ft 411 kts 312°
2026-05-06 15:31 -7.74705 -34.85765 16409 ft 414 kts 300°
2026-05-06 15:31 -7.73397 -34.88357 16885 ft 415 kts 296°
2026-05-06 15:31 -7.72123 -34.90975 17334 ft 416 kts 296°
2026-05-06 15:32 -7.69538 -34.96218 18268 ft 419 kts 296°
2026-05-06 15:32 -7.68235 -34.98845 18647 ft 420 kts 296°
2026-05-06 15:32 -7.66931 -35.01483 19035 ft 421 kts 296°
2026-05-06 15:32 -7.65627 -35.04135 19410 ft 423 kts 296°
2026-05-06 15:33 -7.64322 -35.06795 19777 ft 424 kts 297°
2026-05-06 15:33 -7.63011 -35.09465 20138 ft 426 kts 297°
2026-05-06 15:33 -7.61677 -35.12176 20503 ft 427 kts 297°
2026-05-06 15:33 -7.60351 -35.14867 20855 ft 429 kts 297°
2026-05-06 15:34 -7.59024 -35.17562 21211 ft 430 kts 297°
2026-05-06 15:34 -7.57695 -35.20260 21567 ft 431 kts 297°
2026-05-06 15:34 -7.56356 -35.22979 21921 ft 433 kts 297°
2026-05-06 15:34 -7.55018 -35.25703 22260 ft 434 kts 297°
2026-05-06 15:35 -7.53672 -35.28434 22607 ft 436 kts 297°
2026-05-06 15:35 -7.52321 -35.31171 22942 ft 437 kts 298°
2026-05-06 15:35 -7.50969 -35.33914 23268 ft 439 kts 298°
2026-05-06 15:35 -7.49607 -35.36674 23591 ft 440 kts 297°
2026-05-06 15:36 -7.48245 -35.39431 23851 ft 441 kts 297°
2026-05-06 15:36 -7.46874 -35.42205 24125 ft 441 kts 297°
2026-05-06 15:36 -7.45504 -35.44969 24384 ft 443 kts 297°
2026-05-06 15:36 -7.44126 -35.47745 24650 ft 443 kts 297°
2026-05-06 15:37 -7.42655 -35.50483 24917 ft 444 kts 303°
2026-05-06 15:37 -7.40793 -35.52953 25163 ft 445 kts 312°
2026-05-06 15:37 -7.38538 -35.55099 25401 ft 446 kts 320°
2026-05-06 15:37 -7.36147 -35.57098 25638 ft 448 kts 320°
2026-05-06 15:38 -7.33757 -35.59108 25870 ft 449 kts 319°
2026-05-06 15:38 -7.31358 -35.61134 26110 ft 451 kts 319°
2026-05-06 15:38 -7.28954 -35.63170 26343 ft 452 kts 319°
2026-05-06 15:38 -7.26538 -35.65214 26556 ft 454 kts 319°
2026-05-06 15:39 -7.24086 -35.67288 26775 ft 455 kts 319°
2026-05-06 15:39 -7.21655 -35.69342 26968 ft 457 kts 319°
2026-05-06 15:39 -7.19214 -35.71401 27192 ft 458 kts 319°
2026-05-06 15:39 -7.16765 -35.73464 27397 ft 460 kts 319°
2026-05-06 15:40 -7.14306 -35.75532 27597 ft 461 kts 319°
2026-05-06 15:40 -7.11838 -35.77609 27819 ft 463 kts 319°
2026-05-06 15:40 -7.09360 -35.79685 28032 ft 464 kts 319°
2026-05-06 15:40 -7.06868 -35.81759 28224 ft 465 kts 319°
2026-05-06 15:41 -7.04366 -35.83834 28449 ft 466 kts 319°
2026-05-06 15:41 -7.01868 -35.85904 28728 ft 465 kts 319°
2026-05-06 15:41 -6.99378 -35.87975 29005 ft 464 kts 318°
2026-05-06 15:41 -6.96895 -35.90043 29275 ft 463 kts 318°
2026-05-06 15:42 -6.94415 -35.92110 29551 ft 462 kts 318°
2026-05-06 15:42 -6.91940 -35.94173 29823 ft 462 kts 318°
2026-05-06 15:42 -6.89469 -35.96235 30082 ft 461 kts 317°
2026-05-06 15:42 -6.87001 -35.98295 30314 ft 461 kts 317°
2026-05-06 15:43 -6.84536 -36.00348 30557 ft 460 kts 317°
2026-05-06 15:43 -6.82075 -36.02395 30799 ft 459 kts 317°
2026-05-06 15:43 -6.79618 -36.04438 31038 ft 458 kts 317°
2026-05-06 15:43 -6.77132 -36.06507 31276 ft 457 kts 317°
2026-05-06 15:44 -6.74687 -36.08543 31510 ft 456 kts 317°
2026-05-06 15:44 -6.72251 -36.10570 31746 ft 455 kts 317°
2026-05-06 15:44 -6.69809 -36.12602 31993 ft 454 kts 317°
2026-05-06 15:44 -6.67378 -36.14628 32243 ft 453 kts 317°
2026-05-06 15:45 -6.64959 -36.16647 32514 ft 452 kts 317°
2026-05-06 15:45 -6.62533 -36.18667 32767 ft 451 kts 317°
2026-05-06 15:45 -6.60116 -36.20675 33015 ft 450 kts 317°
2026-05-06 15:45 -6.57708 -36.22674 33281 ft 449 kts 317°
2026-05-06 15:46 -6.55299 -36.24681 33537 ft 448 kts 317°
2026-05-06 15:46 -6.52899 -36.26679 33787 ft 447 kts 317°
2026-05-06 15:46 -6.50509 -36.28670 33961 ft 447 kts 317°
2026-05-06 15:46 -6.48114 -36.30661 33990 ft 446 kts 317°
2026-05-06 15:47 -6.43326 -36.34635 33988 ft 446 kts 317°
2026-05-06 15:47 -6.38532 -36.38608 33989 ft 447 kts 317°
2026-05-06 15:48 -6.33744 -36.42590 33990 ft 447 kts 317°
2026-05-06 15:48 -6.29744 -36.45933 33987 ft 447 kts 317°
2026-05-06 15:49 -6.24968 -36.49927 33979 ft 447 kts 317°
2026-05-06 15:49 -6.20172 -36.53911 33986 ft 447 kts 317°
2026-05-06 15:50 -6.15377 -36.57886 33979 ft 447 kts 317°
2026-05-06 15:50 -6.10579 -36.61856 33979 ft 447 kts 317°
2026-05-06 15:51 -6.05786 -36.65827 33975 ft 447 kts 317°
2026-05-06 15:51 -6.00995 -36.69805 33966 ft 447 kts 317°
2026-05-06 15:52 -5.96167 -36.73813 33964 ft 447 kts 317°
2026-05-06 15:52 -5.91372 -36.77794 33955 ft 447 kts 317°
2026-05-06 15:53 -5.86576 -36.81783 33955 ft 448 kts 317°
2026-05-06 15:53 -5.81779 -36.85769 33951 ft 448 kts 317°
2026-05-06 15:54 -5.76974 -36.89747 33953 ft 448 kts 317°
2026-05-06 15:54 -5.72171 -36.93728 33947 ft 448 kts 317°
2026-05-06 15:55 -5.67360 -36.97707 33949 ft 448 kts 317°
2026-05-06 15:55 -5.62542 -37.01686 33947 ft 448 kts 317°
2026-05-06 15:56 -5.57729 -37.05669 33952 ft 449 kts 317°
2026-05-06 15:56 -5.52909 -37.09663 33949 ft 449 kts 317°
2026-05-06 15:57 -5.48084 -37.13655 33953 ft 450 kts 317°
2026-05-06 15:57 -5.43202 -37.17664 33970 ft 451 kts 318°
2026-05-06 15:58 -5.38298 -37.21587 33979 ft 451 kts 318°
2026-05-06 15:58 -5.33373 -37.25499 33992 ft 452 kts 318°
2026-05-06 15:59 -5.28459 -37.29429 34001 ft 452 kts 318°
2026-05-06 15:59 -5.23550 -37.33370 34005 ft 452 kts 318°
2026-05-06 16:00 -5.18639 -37.37320 33998 ft 452 kts 317°
2026-05-06 16:00 -5.13788 -37.41342 34000 ft 452 kts 316°
2026-05-06 16:01 -5.08978 -37.45408 33992 ft 452 kts 316°
2026-05-06 16:01 -5.04158 -37.49468 33977 ft 452 kts 317°
2026-05-06 16:02 -4.99322 -37.53512 33966 ft 453 kts 317°
2026-05-06 16:02 -4.94473 -37.57555 33959 ft 453 kts 317°
2026-05-06 16:03 -4.89597 -37.61628 33952 ft 453 kts 317°
2026-05-06 16:03 -4.84754 -37.65676 33957 ft 453 kts 317°
2026-05-06 16:04 -4.79904 -37.69723 33956 ft 453 kts 317°
2026-05-06 16:04 -4.75052 -37.73763 33949 ft 453 kts 317°
2026-05-06 16:05 -4.70204 -37.77808 33947 ft 454 kts 317°
2026-05-06 16:05 -4.65356 -37.81859 33949 ft 454 kts 317°
2026-05-06 16:06 -4.60506 -37.85906 33950 ft 454 kts 317°
2026-05-06 16:06 -4.55653 -37.89955 33948 ft 454 kts 317°
2026-05-06 16:07 -4.50796 -37.94005 33944 ft 454 kts 317°
2026-05-06 16:07 -4.45939 -37.98063 33940 ft 455 kts 317°
2026-05-06 16:08 -4.40995 -38.02109 33944 ft 456 kts 318°
2026-05-06 16:08 -4.36067 -38.06099 33942 ft 456 kts 318°
2026-05-06 16:09 -4.31129 -38.10107 33938 ft 456 kts 317°
2026-05-06 16:09 -4.26206 -38.14127 33942 ft 457 kts 317°
2026-05-06 16:10 -4.21317 -38.18189 33944 ft 457 kts 317°
2026-05-06 16:10 -4.16441 -38.22262 33945 ft 457 kts 317°
2026-05-06 16:11 -4.11548 -38.26335 33947 ft 457 kts 317°
2026-05-06 16:11 -4.06647 -38.30387 33945 ft 457 kts 317°
2026-05-06 16:12 -4.01734 -38.34442 33950 ft 457 kts 317°
2026-05-06 16:12 -3.96836 -38.38508 33957 ft 457 kts 317°
2026-05-06 16:13 -3.91906 -38.42600 33958 ft 457 kts 317°
2026-05-06 16:13 -3.87000 -38.46666 33963 ft 458 kts 317°
2026-05-06 16:14 -3.82091 -38.50731 33967 ft 458 kts 317°
2026-05-06 16:14 -3.78002 -38.55517 33969 ft 451 kts 297°
2026-05-06 16:15 -3.75835 -38.61327 33964 ft 445 kts 280°
2026-05-06 16:15 -3.74564 -38.67395 33958 ft 446 kts 280°
2026-05-06 16:16 -3.73268 -38.73466 33949 ft 446 kts 280°
2026-05-06 16:16 -3.71971 -38.79542 33941 ft 447 kts 280°
2026-05-06 16:17 -3.70674 -38.85625 33938 ft 447 kts 280°
2026-05-06 16:17 -3.69382 -38.91710 33932 ft 447 kts 280°
2026-05-06 16:18 -3.68091 -38.97799 33935 ft 447 kts 280°
2026-05-06 16:18 -3.66799 -39.03893 33936 ft 448 kts 280°
2026-05-06 16:19 -3.65710 -39.09000 33934 ft 448 kts 280°
2026-05-06 16:19 -3.64402 -39.15100 33936 ft 448 kts 280°
2026-05-06 16:20 -3.63105 -39.21211 33942 ft 449 kts 280°
2026-05-06 16:20 -3.61809 -39.27323 33943 ft 449 kts 280°
2026-05-06 16:21 -3.60512 -39.33436 33948 ft 449 kts 280°
2026-05-06 16:21 -3.59216 -39.39544 33949 ft 449 kts 280°
2026-05-06 16:22 -3.57916 -39.45652 33944 ft 449 kts 280°
2026-05-06 16:22 -3.56603 -39.51806 33942 ft 449 kts 280°
2026-05-06 16:23 -3.55301 -39.57918 33934 ft 449 kts 280°
2026-05-06 16:23 -3.53993 -39.64040 33939 ft 450 kts 281°
2026-05-06 16:24 -3.52683 -39.70157 33936 ft 450 kts 280°
2026-05-06 16:24 -3.51381 -39.76278 33936 ft 450 kts 280°
2026-05-06 16:25 -3.50077 -39.82407 33936 ft 450 kts 281°
2026-05-06 16:25 -3.48769 -39.88525 33937 ft 450 kts 281°
2026-05-06 16:26 -3.47461 -39.94653 33928 ft 450 kts 281°
2026-05-06 16:26 -3.46160 -40.00785 33925 ft 450 kts 281°
2026-05-06 16:27 -3.45077 -40.06950 33929 ft 450 kts 277°
2026-05-06 16:27 -3.44283 -40.13207 33933 ft 450 kts 275°
2026-05-06 16:28 -3.43338 -40.19412 33933 ft 452 kts 279°
2026-05-06 16:28 -3.42036 -40.25574 33938 ft 453 kts 281°
2026-05-06 16:29 -3.40669 -40.31723 33947 ft 453 kts 281°
2026-05-06 16:29 -3.39375 -40.37889 33952 ft 453 kts 280°
2026-05-06 16:30 -3.38342 -40.43026 33956 ft 453 kts 280°
2026-05-06 16:30 -3.36889 -40.50258 33958 ft 453 kts 280°
2026-05-06 16:31 -3.35629 -40.56442 33956 ft 454 kts 280°
2026-05-06 16:31 -3.34347 -40.62625 33959 ft 454 kts 280°
2026-05-06 16:32 -3.33069 -40.68809 33957 ft 454 kts 280°
2026-05-06 16:32 -3.31790 -40.75044 33962 ft 454 kts 280°
2026-05-06 16:33 -3.30516 -40.81232 33949 ft 454 kts 280°
2026-05-06 16:34 -3.28596 -40.90516 33946 ft 455 kts 280°
2026-05-06 16:34 -3.27312 -40.96718 33964 ft 455 kts 279°
2026-05-06 16:35 -3.26029 -41.02929 33962 ft 456 kts 279°
2026-05-06 16:35 -3.24746 -41.09137 33959 ft 456 kts 279°
2026-05-06 16:36 -3.23453 -41.15353 33960 ft 457 kts 279°
2026-05-06 16:36 -3.22166 -41.21581 33958 ft 457 kts 279°
2026-05-06 16:37 -3.20885 -41.27808 33962 ft 457 kts 279°
2026-05-06 16:37 -3.19597 -41.34045 33964 ft 458 kts 279°
2026-05-06 16:38 -3.18300 -41.40321 33965 ft 457 kts 279°
2026-05-06 16:38 -3.17006 -41.46556 33956 ft 457 kts 279°
2026-05-06 16:39 -3.15710 -41.52785 33952 ft 457 kts 279°
2026-05-06 16:39 -3.14421 -41.59019 33943 ft 458 kts 279°
2026-05-06 16:40 -3.13126 -41.65265 33944 ft 458 kts 279°
2026-05-06 16:40 -3.11829 -41.71512 33943 ft 459 kts 279°
2026-05-06 16:41 -3.10537 -41.77766 33941 ft 459 kts 279°
2026-05-06 16:41 -3.09261 -41.84026 33941 ft 459 kts 279°
2026-05-06 16:42 -3.07989 -41.90286 33946 ft 460 kts 279°
2026-05-06 16:42 -3.06710 -41.96559 33945 ft 460 kts 279°
2026-05-06 16:43 -3.05430 -42.02836 33949 ft 461 kts 279°
2026-05-06 16:43 -3.04140 -42.09166 33950 ft 461 kts 279°
2026-05-06 16:44 -3.02864 -42.15455 33951 ft 461 kts 279°
2026-05-06 16:44 -3.01552 -42.21732 33951 ft 461 kts 280°
2026-05-06 16:45 -3.00216 -42.28009 33950 ft 462 kts 280°
2026-05-06 16:45 -2.98885 -42.34300 33955 ft 462 kts 280°
2026-05-06 16:46 -2.97568 -42.40587 33952 ft 462 kts 280°
2026-05-06 16:46 -2.96251 -42.46886 33962 ft 463 kts 280°
2026-05-06 16:47 -2.94935 -42.53183 33955 ft 462 kts 280°
2026-05-06 16:47 -2.93608 -42.59480 33951 ft 462 kts 280°
2026-05-06 16:48 -2.92275 -42.65769 33949 ft 463 kts 280°
2026-05-06 16:48 -2.90933 -42.72112 33945 ft 463 kts 280°
2026-05-06 16:49 -2.89611 -42.78410 33946 ft 463 kts 280°
2026-05-06 16:49 -2.88290 -42.84720 33952 ft 464 kts 280°
2026-05-06 16:50 -2.86955 -42.91022 33948 ft 463 kts 280°
2026-05-06 16:50 -2.85847 -42.96265 33946 ft 463 kts 280°
2026-05-06 16:51 -2.84518 -43.02575 33947 ft 463 kts 280°
2026-05-06 16:51 -2.83192 -43.08883 33947 ft 464 kts 280°
2026-05-06 16:52 -2.81857 -43.15240 33947 ft 464 kts 280°
2026-05-06 16:52 -2.80520 -43.21555 33948 ft 464 kts 280°
2026-05-06 16:53 -2.79184 -43.27872 33946 ft 464 kts 280°
2026-05-06 16:53 -2.77852 -43.34190 33944 ft 464 kts 280°
2026-05-06 16:54 -2.76524 -43.40514 33945 ft 465 kts 280°
2026-05-06 16:54 -2.75191 -43.46840 33947 ft 465 kts 280°
2026-05-06 16:55 -2.73845 -43.53166 33946 ft 465 kts 280°
2026-05-06 16:55 -2.72497 -43.59498 33948 ft 466 kts 280°
2026-05-06 16:56 -2.71164 -43.65839 33949 ft 466 kts 280°
2026-05-06 16:56 -2.69836 -43.72182 33950 ft 466 kts 280°
2026-05-06 16:57 -2.68491 -43.78568 33947 ft 466 kts 280°
2026-05-06 16:57 -2.67149 -43.84913 33944 ft 467 kts 280°
2026-05-06 16:58 -2.65811 -43.91264 33944 ft 467 kts 280°
2026-05-06 16:58 -2.64477 -43.97617 33950 ft 467 kts 280°
2026-05-06 16:59 -2.63145 -44.03977 33950 ft 467 kts 280°
2026-05-06 16:59 -2.61808 -44.10352 33951 ft 468 kts 280°
2026-05-06 17:00 -2.60461 -44.16717 33948 ft 468 kts 280°
2026-05-06 17:00 -2.59113 -44.23083 33950 ft 468 kts 280°
2026-05-06 17:01 -2.57566 -44.29402 33954 ft 469 kts 284°
2026-05-06 17:01 -2.55722 -44.35660 33956 ft 469 kts 285°
2026-05-06 17:02 -2.53849 -44.41914 33962 ft 469 kts 285°
2026-05-06 17:02 -2.52040 -44.48229 33963 ft 470 kts 284°
2026-05-06 17:03 -2.50280 -44.54516 33961 ft 469 kts 284°
2026-05-06 17:03 -2.48518 -44.60801 33958 ft 469 kts 284°
2026-05-06 17:04 -2.46743 -44.67086 33959 ft 469 kts 284°
2026-05-06 17:04 -2.44958 -44.73362 33964 ft 469 kts 284°
2026-05-06 17:05 -2.43178 -44.79643 33959 ft 469 kts 284°
2026-05-06 17:05 -2.41406 -44.85923 33953 ft 469 kts 284°
2026-05-06 17:06 -2.39630 -44.92204 33952 ft 469 kts 284°
2026-05-06 17:06 -2.37854 -44.98483 33952 ft 469 kts 284°
2026-05-06 17:07 -2.36072 -45.04760 33950 ft 469 kts 284°
2026-05-06 17:07 -2.34275 -45.11078 33947 ft 469 kts 284°
2026-05-06 17:08 -2.32497 -45.17363 33943 ft 469 kts 284°
2026-05-06 17:08 -2.30724 -45.23647 33943 ft 469 kts 284°
2026-05-06 17:09 -2.28951 -45.29922 33943 ft 469 kts 284°
2026-05-06 17:09 -2.27169 -45.36206 33944 ft 470 kts 284°
2026-05-06 17:10 -2.25384 -45.42488 33942 ft 470 kts 284°
2026-05-06 17:10 -2.23597 -45.48777 33941 ft 470 kts 284°
2026-05-06 17:11 -2.21820 -45.55059 33944 ft 470 kts 284°
2026-05-06 17:11 -2.20037 -45.61353 33944 ft 470 kts 285°
2026-05-06 17:12 -2.18246 -45.67645 33945 ft 471 kts 285°
2026-05-06 17:12 -2.16458 -45.73941 33944 ft 471 kts 285°
2026-05-06 17:13 -2.14655 -45.80283 33948 ft 471 kts 285°
2026-05-06 17:13 -2.12872 -45.86579 33949 ft 471 kts 284°
2026-05-06 17:14 -2.11092 -45.92878 33945 ft 471 kts 285°
2026-05-06 17:14 -2.09313 -45.99175 33949 ft 471 kts 285°
2026-05-06 17:15 -2.07512 -46.05470 33952 ft 471 kts 285°
2026-05-06 17:15 -2.05718 -46.11775 33951 ft 471 kts 285°
2026-05-06 17:16 -2.03928 -46.18079 33949 ft 471 kts 285°
2026-05-06 17:16 -2.02138 -46.24382 33951 ft 471 kts 285°
2026-05-06 17:17 -2.00347 -46.30690 33947 ft 472 kts 285°
2026-05-06 17:17 -1.98539 -46.37037 33949 ft 472 kts 285°
2026-05-06 17:18 -1.96735 -46.43357 33950 ft 472 kts 285°
2026-05-06 17:18 -1.94944 -46.49669 33946 ft 472 kts 284°
2026-05-06 17:19 -1.93157 -46.55987 33943 ft 473 kts 285°
2026-05-06 17:19 -1.91365 -46.62300 33949 ft 473 kts 285°
2026-05-06 17:20 -1.89557 -46.68640 33954 ft 474 kts 285°
2026-05-06 17:20 -1.87750 -46.74972 33956 ft 474 kts 285°
2026-05-06 17:21 -1.85946 -46.81302 33952 ft 474 kts 285°
2026-05-06 17:21 -1.84145 -46.87636 33949 ft 474 kts 285°
2026-05-06 17:22 -1.82343 -46.93975 33949 ft 474 kts 285°
2026-05-06 17:22 -1.80836 -46.99281 33950 ft 474 kts 285°
2026-05-06 17:23 -1.79032 -47.05617 33948 ft 474 kts 285°
2026-05-06 17:23 -1.77223 -47.11954 33949 ft 474 kts 285°
2026-05-06 17:24 -1.75423 -47.18287 33944 ft 474 kts 285°
2026-05-06 17:24 -1.73622 -47.24625 33946 ft 474 kts 285°
2026-05-06 17:25 -1.71817 -47.30958 33940 ft 474 kts 285°
2026-05-06 17:25 -1.70009 -47.37295 33942 ft 474 kts 285°
2026-05-06 17:26 -1.68203 -47.43628 33943 ft 474 kts 285°
2026-05-06 17:26 -1.66390 -47.50009 33942 ft 474 kts 285°
2026-05-06 17:27 -1.64581 -47.56350 33941 ft 474 kts 285°
2026-05-06 17:27 -1.62766 -47.62691 33944 ft 475 kts 285°
2026-05-06 17:28 -1.60956 -47.69040 33947 ft 475 kts 285°
2026-05-06 17:28 -1.59153 -47.75394 33949 ft 475 kts 285°
2026-05-06 17:29 -1.57347 -47.81741 33953 ft 475 kts 285°
2026-05-06 17:29 -1.55530 -47.88092 33956 ft 475 kts 285°
2026-05-06 17:30 -1.53715 -47.94442 33964 ft 475 kts 285°
2026-05-06 17:30 -1.51898 -48.00795 33962 ft 475 kts 285°
2026-05-06 17:31 -1.50083 -48.07153 33962 ft 476 kts 285°
2026-05-06 17:31 -1.48251 -48.13547 33965 ft 476 kts 285°
2026-05-06 17:32 -1.46431 -48.19903 33958 ft 476 kts 285°
2026-05-06 17:32 -1.44613 -48.26263 33955 ft 476 kts 285°
2026-05-06 17:33 -1.42797 -48.32622 33950 ft 476 kts 285°
2026-05-06 17:33 -1.40981 -48.38972 33946 ft 476 kts 285°
2026-05-06 17:34 -1.38976 -48.45268 33945 ft 475 kts 294°
2026-05-06 17:34 -1.35402 -48.50783 33942 ft 474 kts 313°
2026-05-06 17:35 -1.30699 -48.55408 33942 ft 474 kts 316°
2026-05-06 17:35 -1.25978 -48.60016 33941 ft 475 kts 316°
2026-05-06 17:36 -1.18895 -48.66958 33947 ft 476 kts 316°
2026-05-06 17:36 -1.14171 -48.71593 33956 ft 476 kts 316°
2026-05-06 17:37 -1.09439 -48.76221 33955 ft 476 kts 316°
2026-05-06 17:37 -1.04674 -48.80883 33957 ft 476 kts 316°
2026-05-06 17:38 -0.99940 -48.85513 33960 ft 476 kts 316°
2026-05-06 17:38 -0.95201 -48.90148 33957 ft 477 kts 316°
2026-05-06 17:39 -0.90461 -48.94772 33958 ft 477 kts 316°
2026-05-06 17:39 -0.85722 -48.99411 33958 ft 477 kts 316°
2026-05-06 17:40 -0.80984 -49.04051 33961 ft 477 kts 316°
2026-05-06 17:40 -0.76244 -49.08684 33958 ft 477 kts 316°
2026-05-06 17:41 -0.71504 -49.13315 33957 ft 477 kts 316°
2026-05-06 17:41 -0.66769 -49.17952 33960 ft 477 kts 316°
2026-05-06 17:42 -0.62028 -49.22584 33959 ft 477 kts 316°
2026-05-06 17:42 -0.57290 -49.27216 33957 ft 476 kts 316°
2026-05-06 17:43 -0.52523 -49.31878 33955 ft 476 kts 316°
2026-05-06 17:43 -0.47787 -49.36509 33954 ft 476 kts 316°
2026-05-06 17:44 -0.43048 -49.41142 33955 ft 477 kts 316°
2026-05-06 17:44 -0.38310 -49.45777 33959 ft 477 kts 316°
2026-05-06 17:45 -0.33578 -49.50414 33959 ft 477 kts 316°
2026-05-06 17:45 -0.28824 -49.55048 33959 ft 477 kts 316°
2026-05-06 17:46 -0.24084 -49.59673 33956 ft 477 kts 316°
2026-05-06 17:46 -0.19347 -49.64317 33956 ft 477 kts 316°
2026-05-06 17:47 -0.14606 -49.68956 33960 ft 477 kts 316°
2026-05-06 17:47 -0.09831 -49.73619 33962 ft 477 kts 316°
2026-05-06 17:48 -0.05096 -49.78258 33960 ft 477 kts 316°
2026-05-06 17:48 -0.00358 -49.82892 33959 ft 477 kts 316°
2026-05-06 17:49 0.04385 -49.87520 33965 ft 477 kts 316°
2026-05-06 17:49 0.09128 -49.92149 33967 ft 476 kts 316°
2026-05-06 17:50 0.13858 -49.96782 33968 ft 476 kts 316°
2026-05-06 17:50 0.18583 -50.01413 33969 ft 476 kts 316°
2026-05-06 17:51 0.23316 -50.06035 33969 ft 476 kts 316°
2026-05-06 17:51 0.28045 -50.10659 33969 ft 475 kts 316°
2026-05-06 17:52 0.32777 -50.15276 33970 ft 475 kts 316°
2026-05-06 17:52 0.37499 -50.19891 33973 ft 475 kts 316°
2026-05-06 17:53 0.41461 -50.23764 33969 ft 475 kts 316°
2026-05-06 17:53 0.46180 -50.28381 33972 ft 475 kts 316°
2026-05-06 17:54 0.50903 -50.33000 33964 ft 475 kts 316°
2026-05-06 17:54 0.55627 -50.37621 33970 ft 475 kts 316°
2026-05-06 17:55 0.60351 -50.42244 33968 ft 475 kts 316°
2026-05-06 17:55 0.65076 -50.46866 33968 ft 475 kts 316°
2026-05-06 17:56 0.69811 -50.51482 33966 ft 476 kts 316°
2026-05-06 17:56 0.74566 -50.56138 33968 ft 476 kts 316°
2026-05-06 17:57 0.79294 -50.60772 33965 ft 476 kts 316°
2026-05-06 17:57 0.84031 -50.65411 33960 ft 477 kts 316°
2026-05-06 17:58 0.88777 -50.70048 33959 ft 478 kts 316°
2026-05-06 17:58 0.93530 -50.74698 33960 ft 479 kts 316°
2026-05-06 17:59 0.98292 -50.79359 33957 ft 480 kts 316°
2026-05-06 17:59 1.03067 -50.84028 33958 ft 481 kts 316°
2026-05-06 18:00 1.07845 -50.88698 33959 ft 481 kts 316°
2026-05-06 18:00 1.12628 -50.93371 33968 ft 481 kts 316°
2026-05-06 18:01 1.17405 -50.98051 33971 ft 481 kts 316°
2026-05-06 18:01 1.22183 -51.02723 33979 ft 480 kts 317°
2026-05-06 18:02 1.26990 -51.07425 33982 ft 480 kts 317°
2026-05-06 18:02 1.31759 -51.12086 33979 ft 480 kts 317°
2026-05-06 18:03 1.36525 -51.16746 33976 ft 479 kts 317°
2026-05-06 18:03 1.41288 -51.21407 33974 ft 479 kts 316°
2026-05-06 18:04 1.46056 -51.26073 33975 ft 480 kts 316°
2026-05-06 18:04 1.50821 -51.30740 33969 ft 480 kts 316°
2026-05-06 18:05 1.55514 -51.35494 33969 ft 480 kts 314°
2026-05-06 18:05 1.60142 -51.40315 33967 ft 481 kts 314°
2026-05-06 18:06 1.64776 -51.45130 33962 ft 481 kts 314°
2026-05-06 18:06 1.69470 -51.49969 33959 ft 481 kts 315°
2026-05-06 18:07 1.74143 -51.54772 33961 ft 482 kts 315°
2026-05-06 18:07 1.78819 -51.59580 33957 ft 483 kts 314°
2026-05-06 18:08 1.83496 -51.64401 33956 ft 483 kts 314°
2026-05-06 18:08 1.88180 -51.69217 33960 ft 483 kts 314°
2026-05-06 18:09 1.92865 -51.74034 33960 ft 484 kts 314°
2026-05-06 18:09 1.97557 -51.78869 33960 ft 484 kts 314°
2026-05-06 18:10 2.02256 -51.83702 33964 ft 485 kts 315°
2026-05-06 18:10 2.06956 -51.88533 33961 ft 485 kts 315°
2026-05-06 18:11 2.11659 -51.93378 33962 ft 485 kts 314°
2026-05-06 18:11 2.16352 -51.98221 33962 ft 485 kts 314°
2026-05-06 18:12 2.21044 -52.03068 33970 ft 485 kts 314°
2026-05-06 18:12 2.25777 -52.07936 33970 ft 485 kts 315°
2026-05-06 18:13 2.30466 -52.12777 33970 ft 485 kts 314°
2026-05-06 18:13 2.35156 -52.17617 33966 ft 484 kts 315°
2026-05-06 18:14 2.39854 -52.22440 33968 ft 484 kts 315°
2026-05-06 18:14 2.44556 -52.27268 33967 ft 484 kts 315°
2026-05-06 18:15 2.49234 -52.32103 33967 ft 484 kts 315°
2026-05-06 18:15 2.53918 -52.36943 33967 ft 484 kts 315°
2026-05-06 18:16 2.58609 -52.41771 33968 ft 484 kts 315°
2026-05-06 18:16 2.63295 -52.46600 33967 ft 484 kts 315°
2026-05-06 18:17 2.67987 -52.51417 33965 ft 483 kts 316°
2026-05-06 18:17 2.72809 -52.56111 33963 ft 483 kts 317°
2026-05-06 18:18 2.77724 -52.60755 33963 ft 483 kts 317°
2026-05-06 18:18 2.82590 -52.65393 33963 ft 483 kts 317°
2026-05-06 18:19 2.87431 -52.70061 33966 ft 483 kts 317°
2026-05-06 18:19 2.92265 -52.74729 33970 ft 483 kts 317°
2026-05-06 18:20 2.97096 -52.79392 33970 ft 482 kts 316°
2026-05-06 18:20 3.01926 -52.84044 33971 ft 482 kts 317°
2026-05-06 18:21 3.06756 -52.88693 33970 ft 482 kts 316°
2026-05-06 18:21 3.11572 -52.93342 33977 ft 481 kts 316°
2026-05-06 18:22 3.16388 -52.97987 33977 ft 480 kts 316°
2026-05-06 18:22 3.21200 -53.02623 33975 ft 480 kts 316°
2026-05-06 18:23 3.25223 -53.06500 33975 ft 479 kts 316°
2026-05-06 18:23 3.30018 -53.11128 33975 ft 479 kts 316°
2026-05-06 18:24 3.34809 -53.15757 33974 ft 478 kts 316°
2026-05-06 18:24 3.39604 -53.20379 33969 ft 478 kts 316°
2026-05-06 18:25 3.44396 -53.24994 33966 ft 478 kts 316°
2026-05-06 18:25 3.49188 -53.29615 33965 ft 478 kts 316°
2026-05-06 18:26 3.53976 -53.34240 33963 ft 478 kts 316°
2026-05-06 18:26 3.58765 -53.38870 33957 ft 479 kts 316°
2026-05-06 18:27 3.63581 -53.43534 33956 ft 479 kts 316°
2026-05-06 18:27 3.68349 -53.48131 33952 ft 479 kts 316°
2026-05-06 18:28 3.73174 -53.52792 33954 ft 479 kts 316°
2026-05-06 18:28 3.77966 -53.57431 33956 ft 479 kts 316°
2026-05-06 18:29 3.82760 -53.62066 33953 ft 479 kts 316°
2026-05-06 18:29 3.87555 -53.66698 33954 ft 479 kts 316°
2026-05-06 18:30 3.92349 -53.71327 33959 ft 479 kts 316°
2026-05-06 18:30 3.97135 -53.75960 33956 ft 478 kts 315°
2026-05-06 18:31 4.01919 -53.80591 33954 ft 478 kts 315°
2026-05-06 18:31 4.06697 -53.85223 33953 ft 478 kts 315°
2026-05-06 18:32 4.11473 -53.89853 33954 ft 478 kts 315°
2026-05-06 18:32 4.16285 -53.94510 33955 ft 478 kts 315°
2026-05-06 18:33 4.21065 -53.99130 33951 ft 477 kts 315°
2026-05-06 18:33 4.25838 -54.03750 33950 ft 477 kts 315°
2026-05-06 18:34 4.30610 -54.08369 33950 ft 477 kts 315°
2026-05-06 18:34 4.35372 -54.12988 33949 ft 477 kts 315°
2026-05-06 18:35 4.40136 -54.17605 33953 ft 476 kts 315°
2026-05-06 18:35 4.44896 -54.22220 33953 ft 476 kts 315°
2026-05-06 18:36 4.49658 -54.26830 33950 ft 476 kts 315°
2026-05-06 18:36 4.54418 -54.31438 33950 ft 476 kts 315°
2026-05-06 18:37 4.59175 -54.36050 33949 ft 476 kts 315°
2026-05-06 18:37 4.63933 -54.40663 33944 ft 476 kts 315°
2026-05-06 18:38 4.68723 -54.45300 33943 ft 476 kts 315°
2026-05-06 18:38 4.73513 -54.49884 33939 ft 476 kts 315°
2026-05-06 18:39 4.78317 -54.54456 33945 ft 476 kts 315°
2026-05-06 18:40 4.85499 -54.61341 33944 ft 476 kts 315°
2026-05-06 18:40 4.90291 -54.65925 33945 ft 476 kts 315°
2026-05-06 18:41 4.95086 -54.70506 33944 ft 476 kts 315°
2026-05-06 18:41 4.99874 -54.75094 33945 ft 476 kts 315°
2026-05-06 18:42 5.04661 -54.79683 33946 ft 476 kts 315°
2026-05-06 18:42 5.09452 -54.84269 33947 ft 476 kts 315°
2026-05-06 18:43 5.14242 -54.88851 33948 ft 476 kts 315°
2026-05-06 18:43 5.19025 -54.93440 33946 ft 476 kts 315°
2026-05-06 18:44 5.23835 -54.98058 33948 ft 476 kts 315°
2026-05-06 18:44 5.28623 -55.02652 33947 ft 476 kts 315°
2026-05-06 18:45 5.33401 -55.07234 33944 ft 476 kts 315°
2026-05-06 18:45 5.38180 -55.11823 33944 ft 475 kts 315°
2026-05-06 18:46 5.42882 -55.16481 33941 ft 474 kts 308°
2026-05-06 18:46 5.46271 -55.22096 33941 ft 470 kts 290°
2026-05-06 18:47 5.48409 -55.28280 33939 ft 469 kts 287°
2026-05-06 18:47 5.50534 -55.34469 33937 ft 469 kts 287°
2026-05-06 18:48 5.52665 -55.40665 33939 ft 470 kts 288°
2026-05-06 18:48 5.54784 -55.46871 33943 ft 470 kts 287°
2026-05-06 18:49 5.56899 -55.53076 33949 ft 470 kts 287°
2026-05-06 18:49 5.59033 -55.59323 33947 ft 470 kts 287°
2026-05-06 18:50 5.61151 -55.65521 33957 ft 469 kts 287°
2026-05-06 18:50 5.63267 -55.71719 33964 ft 469 kts 287°
2026-05-06 18:51 5.65373 -55.77911 33967 ft 468 kts 287°
2026-05-06 18:51 5.67483 -55.84091 33973 ft 468 kts 287°
2026-05-06 18:52 5.69592 -55.90262 33973 ft 467 kts 287°
2026-05-06 18:52 5.71694 -55.96423 33972 ft 466 kts 287°
2026-05-06 18:53 5.73784 -56.02576 33973 ft 465 kts 287°
2026-05-06 18:53 5.75870 -56.08717 33976 ft 464 kts 287°
2026-05-06 18:54 5.77960 -56.14845 33976 ft 463 kts 288°
2026-05-06 18:54 5.80043 -56.20962 33982 ft 463 kts 288°
2026-05-06 18:55 5.81781 -56.26081 33979 ft 462 kts 288°
2026-05-06 18:55 5.83859 -56.32182 33980 ft 461 kts 288°
2026-05-06 18:56 5.85928 -56.38276 33983 ft 461 kts 288°
2026-05-06 18:56 5.87995 -56.44359 33981 ft 460 kts 288°
2026-05-06 18:57 5.90057 -56.50441 33981 ft 460 kts 288°
2026-05-06 18:57 5.92116 -56.56516 33974 ft 459 kts 288°
2026-05-06 18:58 5.94175 -56.62586 33974 ft 459 kts 288°
2026-05-06 18:58 5.96245 -56.68689 33974 ft 459 kts 288°
2026-05-06 18:59 5.98302 -56.74747 33978 ft 458 kts 288°
2026-05-06 18:59 6.00353 -56.80795 33985 ft 457 kts 288°
2026-05-06 19:00 6.02401 -56.86833 33981 ft 456 kts 288°
2026-05-06 19:00 6.04437 -56.92873 33978 ft 456 kts 287°
2026-05-06 19:01 6.06474 -56.98908 33974 ft 456 kts 288°
2026-05-06 19:01 6.08522 -57.04943 33968 ft 456 kts 288°
2026-05-06 19:02 6.10561 -57.10979 33961 ft 456 kts 288°
2026-05-06 19:02 6.12622 -57.17015 33966 ft 457 kts 288°
2026-05-06 19:03 6.14690 -57.23054 33965 ft 457 kts 288°
2026-05-06 19:03 6.16768 -57.29093 33967 ft 457 kts 288°
2026-05-06 19:04 6.18865 -57.35173 33967 ft 458 kts 288°
2026-05-06 19:04 6.20954 -57.41225 33969 ft 458 kts 288°
2026-05-06 19:05 6.23000 -57.47290 33972 ft 458 kts 287°
2026-05-06 19:05 6.25002 -57.53361 33824 ft 457 kts 287°
2026-05-06 19:05 6.25998 -57.56384 33263 ft 453 kts 287°
2026-05-06 19:06 6.26985 -57.59368 32673 ft 449 kts 287°
2026-05-06 19:06 6.27971 -57.62338 32103 ft 447 kts 287°
2026-05-06 19:06 6.28954 -57.65293 31545 ft 444 kts 287°
2026-05-06 19:06 6.29933 -57.68234 30745 ft 446 kts 287°
2026-05-06 19:07 6.30934 -57.71257 29213 ft 466 kts 287°
2026-05-06 19:07 6.31971 -57.74390 27918 ft 477 kts 287°
2026-05-06 19:07 6.32847 -57.77584 27183 ft 471 kts 277°
2026-05-06 19:07 6.33007 -57.80838 26503 ft 463 kts 264°
2026-05-06 19:08 6.32753 -57.84053 25826 ft 460 kts 264°
2026-05-06 19:08 6.32541 -57.86649 25314 ft 457 kts 264°
2026-05-06 19:08 6.32320 -57.89425 24758 ft 454 kts 264°
2026-05-06 19:08 6.32067 -57.92564 24351 ft 445 kts 264°
2026-05-06 19:09 6.31816 -57.95641 24238 ft 428 kts 264°
2026-05-06 19:09 6.31579 -57.98573 24132 ft 412 kts 264°
2026-05-06 19:09 6.31350 -58.01395 24013 ft 398 kts 264°
2026-05-06 19:09 6.31125 -58.04118 23903 ft 384 kts 264°
2026-05-06 19:10 6.30908 -58.06755 23739 ft 374 kts 264°
2026-05-06 19:10 6.30696 -58.09334 23402 ft 369 kts 264°
2026-05-06 19:10 6.30483 -58.11898 22968 ft 366 kts 264°
2026-05-06 19:10 6.30274 -58.14441 22528 ft 364 kts 264°
2026-05-06 19:11 6.30067 -58.16969 22101 ft 362 kts 264°
2026-05-06 19:11 6.29864 -58.19483 21686 ft 360 kts 264°
2026-05-06 19:11 6.29661 -58.21980 21272 ft 358 kts 265°
2026-05-06 19:11 6.29459 -58.24473 20879 ft 356 kts 264°
2026-05-06 19:12 6.29257 -58.26913 20744 ft 346 kts 264°
2026-05-06 19:12 6.29060 -58.29291 20625 ft 336 kts 265°
2026-05-06 19:12 6.28872 -58.31593 20508 ft 327 kts 265°
2026-05-06 19:12 6.28466 -58.33798 20393 ft 316 kts 247°
2026-05-06 19:13 6.27364 -58.35643 20263 ft 305 kts 226°
2026-05-06 19:13 6.25741 -58.36958 20038 ft 298 kts 206°
2026-05-06 19:13 6.23811 -58.37647 19750 ft 294 kts 187°
2026-05-06 19:13 6.21791 -58.37664 19441 ft 290 kts 168°
2026-05-06 19:14 6.19896 -58.37028 19140 ft 287 kts 149°
2026-05-06 19:14 6.18322 -58.35829 18843 ft 284 kts 130°
2026-05-06 19:14 6.17223 -58.34207 18567 ft 281 kts 112°
2026-05-06 19:14 6.16687 -58.32339 18286 ft 278 kts 95°
2026-05-06 19:15 6.16667 -58.30403 17963 ft 277 kts 86°
2026-05-06 19:15 6.16822 -58.28448 17672 ft 276 kts 83°
2026-05-06 19:15 6.17036 -58.26538 17409 ft 274 kts 83°
2026-05-06 19:15 6.17262 -58.24647 17140 ft 272 kts 83°
2026-05-06 19:16 6.17487 -58.22758 16871 ft 271 kts 83°
2026-05-06 19:16 6.17786 -58.20903 16613 ft 269 kts 73°
2026-05-06 19:16 6.18544 -58.19192 16350 ft 268 kts 57°
2026-05-06 19:16 6.19766 -58.17784 16088 ft 269 kts 40°
2026-05-06 19:17 6.21360 -58.16805 15835 ft 270 kts 24°
2026-05-06 19:17 6.23186 -58.16352 15560 ft 272 kts
2026-05-06 19:17 6.25077 -58.16485 15312 ft 275 kts 348°
2026-05-06 19:17 6.26852 -58.17208 15048 ft 278 kts 329°
2026-05-06 19:18 6.28327 -58.18462 14797 ft 280 kts 311°
2026-05-06 19:18 6.29344 -58.20127 14542 ft 281 kts 292°
2026-05-06 19:18 6.29792 -58.22033 14288 ft 281 kts 273°
2026-05-06 19:18 6.29765 -58.23996 14029 ft 281 kts 266°
2026-05-06 19:19 6.29596 -58.25954 13779 ft 281 kts 263°
2026-05-06 19:19 6.29371 -58.27899 13517 ft 280 kts 263°
2026-05-06 19:19 6.29134 -58.29837 13243 ft 279 kts 263°
2026-05-06 19:19 6.28903 -58.31770 12989 ft 278 kts 263°
2026-05-06 19:20 6.28448 -58.33639 12752 ft 275 kts 242°
2026-05-06 19:20 6.27310 -58.35143 12482 ft 270 kts 216°
2026-05-06 19:20 6.25697 -58.36032 12198 ft 263 kts 192°
2026-05-06 19:20 6.23910 -58.36187 11916 ft 256 kts 168°
2026-05-06 19:21 6.22250 -58.35635 11622 ft 250 kts 146°
2026-05-06 19:21 6.20940 -58.34495 11341 ft 244 kts 124°
2026-05-06 19:21 6.20180 -58.32999 11053 ft 241 kts 103°
2026-05-06 19:21 6.20014 -58.31342 10766 ft 239 kts 88°
2026-05-06 19:22 6.20128 -58.29675 10474 ft 238 kts 84°
2026-05-06 19:22 6.20306 -58.28027 10202 ft 237 kts 83°
2026-05-06 19:22 6.20498 -58.26382 9934 ft 236 kts 83°
2026-05-06 19:22 6.20685 -58.24753 9637 ft 235 kts 83°
2026-05-06 19:23 6.20903 -58.23130 9338 ft 233 kts 76°
2026-05-06 19:23 6.21519 -58.21638 9038 ft 233 kts 58°
2026-05-06 19:23 6.22618 -58.20446 8740 ft 234 kts 38°
2026-05-06 19:23 6.24083 -58.19731 8417 ft 238 kts 17°
2026-05-06 19:24 6.25741 -58.19607 8112 ft 243 kts 356°
2026-05-06 19:24 6.27361 -58.20116 7798 ft 247 kts 333°
2026-05-06 19:24 6.28683 -58.21225 7483 ft 252 kts 310°
2026-05-06 19:24 6.29488 -58.22792 7175 ft 254 kts 285°
2026-05-06 19:25 6.29647 -58.24552 6877 ft 255 kts 268°
2026-05-06 19:25 6.29520 -58.26334 6555 ft 256 kts 264°
2026-05-06 19:25 6.29330 -58.28107 6252 ft 255 kts 263°
2026-05-06 19:25 6.29123 -58.29874 5971 ft 253 kts 264°
2026-05-06 19:26 6.28918 -58.31622 5675 ft 252 kts 264°
2026-05-06 19:26 6.28538 -58.33329 5393 ft 249 kts 243°
2026-05-06 19:26 6.27503 -58.34679 5132 ft 244 kts 215°
2026-05-06 19:26 6.26525 -58.35246 5027 ft 237 kts 196°
2026-05-06 19:27 6.24926 -58.35484 4988 ft 232 kts 170°
2026-05-06 19:27 6.23410 -58.35023 4990 ft 227 kts 145°
2026-05-06 19:27 6.22258 -58.33979 4988 ft 222 kts 121°
2026-05-06 19:27 6.21655 -58.32578 4988 ft 219 kts 98°
2026-05-06 19:28 6.21612 -58.31061 4987 ft 218 kts 85°
2026-05-06 19:28 6.21745 -58.29543 4987 ft 218 kts 83°
2026-05-06 19:28 6.21912 -58.28024 4989 ft 219 kts 82°
2026-05-06 19:28 6.22086 -58.26510 4988 ft 218 kts 83°
2026-05-06 19:29 6.22257 -58.24997 4987 ft 218 kts 83°
2026-05-06 19:29 6.22575 -58.23520 4988 ft 216 kts 67°
2026-05-06 19:29 6.23394 -58.22258 4988 ft 219 kts 46°
2026-05-06 19:29 6.24666 -58.21416 4988 ft 222 kts 23°
2026-05-06 19:30 6.26200 -58.21179 4986 ft 228 kts 358°
2026-05-06 19:30 6.27732 -58.21632 4987 ft 235 kts 333°
2026-05-06 19:30 6.28946 -58.22749 4984 ft 241 kts 305°
2026-05-06 19:30 6.29550 -58.24324 4986 ft 246 kts 277°
2026-05-06 19:31 6.29508 -58.26044 4990 ft 247 kts 265°
2026-05-06 19:31 6.29336 -58.27771 4986 ft 249 kts 264°
2026-05-06 19:31 6.28950 -58.31250 4986 ft 248 kts 264°
2026-05-06 19:32 6.28676 -58.32961 4986 ft 248 kts 249°
2026-05-06 19:32 6.27773 -58.34407 4986 ft 245 kts 220°
2026-05-06 19:32 6.26338 -58.35261 4988 ft 239 kts 192°
2026-05-06 19:32 6.24720 -58.35365 4988 ft 231 kts 165°
2026-05-06 19:33 6.23265 -58.34763 4990 ft 225 kts 140°
2026-05-06 19:33 6.22235 -58.33621 4988 ft 220 kts 115°
2026-05-06 19:33 6.21788 -58.32176 4987 ft 217 kts 92°
2026-05-06 19:33 6.21835 -58.30661 4989 ft 218 kts 84°
2026-05-06 19:34 6.21984 -58.29148 4986 ft 218 kts 83°
2026-05-06 19:34 6.22156 -58.27629 4988 ft 218 kts 83°
2026-05-06 19:34 6.22329 -58.26119 4987 ft 217 kts 83°
2026-05-06 19:34 6.22503 -58.24614 4986 ft 217 kts 80°
2026-05-06 19:35 6.22975 -58.23189 4985 ft 216 kts 60°
2026-05-06 19:35 6.23973 -58.22059 4986 ft 220 kts 37°
2026-05-06 19:35 6.25368 -58.21440 4984 ft 223 kts 13°
2026-05-06 19:35 6.26930 -58.21482 4985 ft 230 kts 348°
2026-05-06 19:36 6.28360 -58.22235 4989 ft 238 kts 321°
2026-05-06 19:36 6.29318 -58.23595 4985 ft 243 kts 292°
2026-05-06 19:36 6.29561 -58.25276 4986 ft 246 kts 266°
2026-05-06 19:36 6.29413 -58.26996 4986 ft 248 kts 264°
2026-05-06 19:37 6.29229 -58.28726 4985 ft 250 kts 264°
2026-05-06 19:37 6.29035 -58.30453 4986 ft 248 kts 264°
2026-05-06 19:37 6.28839 -58.32173 4982 ft 248 kts 263°
2026-05-06 19:37 6.28275 -58.33790 4986 ft 246 kts 233°
2026-05-06 19:38 6.27039 -58.34939 4987 ft 242 kts 204°
2026-05-06 19:38 6.25457 -58.35381 4985 ft 235 kts 176°
2026-05-06 19:38 6.23892 -58.35077 4984 ft 227 kts 150°
2026-05-06 19:38 6.22650 -58.34125 4986 ft 221 kts 125°
2026-05-06 19:39 6.21955 -58.32771 4985 ft 217 kts 102°
2026-05-06 19:39 6.21851 -58.31267 4984 ft 217 kts 85°
2026-05-06 19:39 6.21973 -58.29757 4986 ft 218 kts 83°
2026-05-06 19:39 6.22139 -58.28244 4987 ft 218 kts 82°
2026-05-06 19:40 6.22310 -58.26735 4986 ft 217 kts 83°
2026-05-06 19:40 6.22479 -58.25230 4985 ft 216 kts 82°
2026-05-06 19:40 6.22771 -58.23754 4990 ft 215 kts 68°
2026-05-06 19:40 6.23573 -58.22489 4982 ft 218 kts 46°
2026-05-06 19:41 6.24842 -58.21654 4990 ft 221 kts 22°
2026-05-06 19:41 6.26373 -58.21441 4988 ft 227 kts 357°
2026-05-06 19:41 6.27887 -58.21936 4984 ft 234 kts 330°
2026-05-06 19:41 6.29046 -58.23096 4985 ft 241 kts 303°
2026-05-06 19:42 6.29561 -58.24700 4981 ft 245 kts 273°
2026-05-06 19:42 6.29469 -58.26415 4983 ft 247 kts 265°
2026-05-06 19:42 6.29291 -58.28135 4986 ft 248 kts 264°
2026-05-06 19:42 6.29099 -58.29862 4985 ft 248 kts 264°
2026-05-06 19:43 6.28907 -58.31584 4988 ft 248 kts 265°
2026-05-06 19:43 6.28557 -58.33273 4986 ft 247 kts 244°
2026-05-06 19:43 6.27532 -58.34621 4986 ft 243 kts 215°
2026-05-06 19:43 6.26035 -58.35326 4984 ft 237 kts 186°
2026-05-06 19:44 6.24427 -58.35277 4983 ft 229 kts 160°
2026-05-06 19:44 6.23044 -58.34548 4983 ft 223 kts 134°
2026-05-06 19:44 6.22134 -58.33326 4983 ft 218 kts 110°
2026-05-06 19:44 6.21818 -58.31854 4981 ft 216 kts 88°
2026-05-06 19:45 6.21904 -58.30341 4983 ft 217 kts 84°
2026-05-06 19:45 6.22061 -58.28834 4983 ft 217 kts 82°
2026-05-06 19:45 6.22235 -58.27328 4980 ft 216 kts 82°
2026-05-06 19:45 6.22408 -58.25826 4983 ft 216 kts 81°
2026-05-06 19:46 6.22604 -58.24312 4984 ft 215 kts 76°
2026-05-06 19:46 6.23198 -58.22938 4982 ft 216 kts 55°
2026-05-06 19:46 6.24295 -58.21911 4983 ft 219 kts 32°
2026-05-06 19:46 6.25751 -58.21436 4985 ft 224 kts
2026-05-06 19:47 6.27307 -58.21647 4992 ft 231 kts 341°
2026-05-06 19:47 6.28653 -58.22561 4978 ft 239 kts 315°
2026-05-06 19:47 6.29454 -58.24029 4980 ft 244 kts 285°
2026-05-06 19:47 6.29534 -58.25730 4985 ft 246 kts 265°
2026-05-06 19:48 6.29369 -58.27446 4982 ft 247 kts 264°
2026-05-06 19:48 6.29178 -58.29170 4981 ft 249 kts 264°
2026-05-06 19:48 6.28985 -58.30893 4986 ft 248 kts 264°
2026-05-06 19:48 6.28769 -58.32609 4982 ft 248 kts 257°
2026-05-06 19:49 6.28018 -58.34138 4981 ft 245 kts 226°
2026-05-06 19:49 6.26668 -58.35125 4979 ft 239 kts 198°
2026-05-06 19:49 6.25061 -58.35382 4982 ft 233 kts 170°
2026-05-06 19:49 6.23558 -58.34904 4982 ft 225 kts 144°
2026-05-06 19:50 6.22444 -58.33845 4981 ft 220 kts 120°
2026-05-06 19:50 6.21887 -58.32443 4982 ft 216 kts 96°
2026-05-06 19:50 6.21880 -58.30941 4983 ft 216 kts 85°
2026-05-06 19:50 6.22021 -58.29431 4987 ft 217 kts 83°
2026-05-06 19:51 6.22190 -58.27927 4977 ft 216 kts 83°
2026-05-06 19:51 6.22363 -58.26423 4986 ft 216 kts 83°
2026-05-06 19:51 6.22530 -58.24925 4980 ft 215 kts 82°
2026-05-06 19:51 6.22903 -58.23482 4983 ft 215 kts 64°
2026-05-06 19:52 6.23802 -58.22286 4983 ft 217 kts 42°
2026-05-06 19:52 6.25133 -58.21568 4986 ft 221 kts 17°
2026-05-06 19:52 6.26684 -58.21488 4982 ft 229 kts 352°
2026-05-06 19:52 6.28172 -58.22135 4984 ft 236 kts 325°
2026-05-06 19:53 6.29221 -58.23415 4984 ft 243 kts 297°
2026-05-06 19:53 6.29573 -58.25067 4981 ft 245 kts 268°
2026-05-06 19:53 6.29431 -58.26784 4984 ft 246 kts 264°
2026-05-06 19:53 6.29248 -58.28496 4981 ft 248 kts 264°
2026-05-06 19:54 6.29055 -58.30221 4983 ft 247 kts 264°
2026-05-06 19:54 6.28863 -58.31934 4981 ft 247 kts 264°
2026-05-06 19:54 6.28395 -58.33580 4981 ft 246 kts 238°
2026-05-06 19:54 6.27244 -58.34813 4978 ft 242 kts 208°
2026-05-06 19:55 6.25693 -58.35359 4984 ft 235 kts 180°
2026-05-06 19:55 6.24112 -58.35147 4983 ft 227 kts 154°
2026-05-06 19:55 6.22823 -58.34285 4982 ft 221 kts 128°
2026-05-06 19:55 6.22048 -58.32986 4984 ft 217 kts 105°
2026-05-06 19:56 6.21877 -58.31494 4985 ft 215 kts 86°
2026-05-06 19:56 6.21992 -58.29992 4983 ft 216 kts 83°
2026-05-06 19:56 6.22156 -58.28487 4983 ft 216 kts 83°
2026-05-06 19:56 6.22327 -58.26990 4977 ft 215 kts 83°
2026-05-06 19:57 6.22495 -58.25496 4982 ft 215 kts 82°
2026-05-06 19:57 6.22733 -58.24019 4983 ft 214 kts 71°
2026-05-06 19:57 6.23446 -58.22710 4986 ft 216 kts 50°
2026-05-06 19:57 6.24639 -58.21800 4982 ft 219 kts 26°
2026-05-06 19:58 6.26137 -58.21476 4984 ft 225 kts
2026-05-06 19:58 6.27671 -58.21851 4986 ft 233 kts 336°
2026-05-06 19:58 6.28911 -58.22913 4983 ft 241 kts 307°
2026-05-06 19:58 6.29534 -58.24478 4982 ft 245 kts 277°
2026-05-06 19:59 6.29485 -58.26191 4983 ft 246 kts 265°
2026-05-06 19:59 6.29312 -58.27903 4980 ft 247 kts 264°
2026-05-06 19:59 6.29183 -58.29064 4982 ft 248 kts 264°
2026-05-06 19:59 6.28991 -58.30781 4982 ft 247 kts 264°
2026-05-06 20:00 6.28786 -58.32492 4983 ft 247 kts 259°
2026-05-06 20:00 6.28084 -58.34043 4980 ft 245 kts 228°
2026-05-06 20:00 6.26755 -58.35066 4980 ft 240 kts 199°
2026-05-06 20:00 6.25158 -58.35359 4979 ft 232 kts 171°
2026-05-06 20:01 6.23641 -58.34912 4980 ft 224 kts 145°
2026-05-06 20:01 6.22516 -58.33880 4978 ft 219 kts 121°
2026-05-06 20:01 6.21939 -58.32494 4975 ft 215 kts 97°
2026-05-06 20:01 6.21920 -58.30996 4982 ft 216 kts 84°
2026-05-06 20:02 6.22059 -58.29494 4981 ft 216 kts 82°
2026-05-06 20:02 6.22230 -58.27999 4977 ft 215 kts 82°
2026-05-06 20:02 6.22404 -58.26509 4981 ft 215 kts 82°
2026-05-06 20:02 6.22572 -58.25022 4981 ft 214 kts 82°
2026-05-06 20:03 6.22928 -58.23581 4979 ft 214 kts 65°
2026-05-06 20:03 6.23807 -58.22379 4975 ft 215 kts 43°
2026-05-06 20:03 6.25114 -58.21644 4979 ft 220 kts 18°
2026-05-06 20:03 6.26669 -58.21541 4984 ft 227 kts 353°
2026-05-06 20:04 6.28121 -58.22143 4982 ft 235 kts 327°
2026-05-06 20:04 6.29204 -58.23414 4982 ft 242 kts 297°
2026-05-06 20:04 6.29574 -58.25065 4963 ft 245 kts 269°
2026-05-06 20:04 6.29447 -58.26769 4702 ft 244 kts 265°
2026-05-06 20:05 6.29267 -58.28456 4317 ft 242 kts 264°
2026-05-06 20:05 6.29079 -58.30129 3878 ft 239 kts 265°
2026-05-06 20:05 6.29199 -58.31773 3463 ft 235 kts 288°
2026-05-06 20:05 6.29896 -58.33229 3069 ft 229 kts 310°
2026-05-06 20:06 6.30984 -58.34373 2969 ft 224 kts 318°
2026-05-06 20:06 6.32082 -58.35468 2974 ft 221 kts 317°
2026-05-06 20:06 6.33188 -58.36538 2977 ft 219 kts 325°
2026-05-06 20:06 6.34484 -58.37264 2974 ft 207 kts 345°
2026-05-06 20:07 6.35849 -58.37515 2977 ft 195 kts
2026-05-06 20:07 6.37160 -58.37347 2960 ft 188 kts 20°
2026-05-06 20:07 6.38338 -58.36806 2834 ft 182 kts 36°
2026-05-06 20:07 6.39244 -58.36014 2630 ft 166 kts 46°
2026-05-06 20:08 6.40025 -58.35235 2447 ft 149 kts 47°
2026-05-06 20:08 6.40742 -58.34520 2249 ft 141 kts 46°
2026-05-06 20:08 6.41424 -58.33834 2077 ft 137 kts 47°
2026-05-06 20:08 6.42099 -58.33152 1902 ft 137 kts 46°
2026-05-06 20:09 6.42777 -58.32478 1742 ft 137 kts 45°
2026-05-06 20:09 6.43453 -58.31804 1564 ft 137 kts 46°
2026-05-06 20:09 6.44141 -58.31146 1375 ft 135 kts 45°
2026-05-06 20:09 6.44802 -58.30467 1172 ft 136 kts 47°
2026-05-06 20:10 6.45476 -58.29803 997 ft 135 kts 45°
2026-05-06 20:10 6.46146 -58.29138 857 ft 134 kts 45°
2026-05-06 20:10 6.46800 -58.28460 679 ft 137 kts 45°
2026-05-06 20:10 6.47484 -58.27797 461 ft 137 kts 44°
2026-05-06 20:11 6.48162 -58.27101 374 ft 139 kts 45°
2026-05-06 20:11 6.48841 -58.26435 152 ft 132 kts 44°
2026-05-06 20:11 6.49435 -58.25843 105 ft 102 kts 45°
2026-05-06 20:11 6.49829 -58.25458 108 ft 58 kts 43°
2026-05-06 20:12 6.50050 -58.25229 106 ft 31 kts 47°
2026-05-06 20:12 6.50189 -58.25075 105 ft 22 kts 45°
2026-05-06 20:12 6.50271 -58.25041 105 ft 13 kts 337°
2026-05-06 20:12 6.50333 -58.25109 105 ft 11 kts 310°
2026-05-06 20:13 6.50351 -58.25130 105 ft 3 kts 305°
2026-05-06 20:13 6.50353 -58.25145 105 ft 2 kts 281°
2026-05-06 20:13 6.50357 -58.25155 105 ft 3 kts 293°
2026-05-06 20:13 6.50369 -58.25171 104 ft 2 kts 311°
2026-05-06 20:14 6.50376 -58.25179 105 ft 1 kts 314°
2026-05-06 20:14 6.50382 -58.25184 105 ft 1 kts 316°
2026-05-06 20:14 6.50385 -58.25187 105 ft 0 kts 317°